| time (UTC) | temp F | wind direction | speed MPH | gust MPH | rain 1hr in | rain 24hr in | rain mn in | humidity % | barometer mb |
| 20260507103006 | 65 | 258 | 0.0 | 3.0 | 0.00 | 0.18 | 0.02 | 61 | 1013.3 |
| 20260507101507 | 65 | 278 | 2.0 | 4.0 | 0.00 | 0.18 | 0.02 | 60 | 1013.3 |
| 20260507100007 | 65 | 328 | 4.0 | 6.0 | 0.00 | 0.18 | 0.02 | 61 | 1013.4 |
| 20260507094502 | 65 | 281 | 3.0 | 4.0 | 0.00 | 0.18 | 0.02 | 61 | 1013.4 |
| 20260507093101 | 64 | 53 | 2.0 | 4.0 | 0.00 | 0.18 | 0.02 | 63 | 1013.6 |
| 20260507091558 | 63 | 84 | 1.0 | 8.0 | 0.00 | 0.18 | 0.02 | 65 | 1013.6 |
| 20260507084556 | 62 | 9 | 0.0 | 3.0 | 0.00 | 0.18 | 0.02 | 68 | 1014.0 |
| 20260507083050 | 60 | 218 | 1.0 | 3.0 | 0.00 | 0.18 | 0.02 | 70 | 1014.2 |
| 20260507081553 | 59 | 65 | 1.0 | 4.0 | 0.00 | 0.18 | 0.02 | 74 | 1014.2 |
| 20260507080042 | 58 | 53 | 1.0 | 3.0 | 0.00 | 0.18 | 0.02 | 75 | 1014.2 |
| 20260507074539 | 57 | 311 | 1.0 | 3.0 | 0.00 | 0.19 | 0.02 | 76 | 1014.2 |
| 20260507073037 | 57 | 311 | 1.0 | 3.0 | 0.00 | 0.19 | 0.02 | 77 | 1014.2 |
| 20260507071537 | 56 | 303 | 1.0 | 2.0 | 0.00 | 0.19 | 0.02 | 79 | 1014.2 |
| 20260507070036 | 56 | 303 | 2.0 | 4.0 | 0.00 | 0.19 | 0.02 | 81 | 1014.2 |
| 20260507064557 | 55 | 304 | 1.0 | 3.0 | 0.00 | 0.19 | 0.02 | 82 | 1014.2 |
| 20260507063035 | 55 | 327 | 1.0 | 3.0 | 0.00 | 0.19 | 0.02 | 82 | 1014.2 |
| 20260507061532 | 54 | 318 | 0.0 | 2.0 | 0.00 | 0.19 | 0.02 | 82 | 1014.1 |
| 20260507060029 | 54 | 317 | 0.0 | 0.0 | 0.00 | 0.19 | 0.02 | 82 | 1014.0 |
| 20260507054527 | 54 | 308 | 0.0 | 0.0 | 0.00 | 0.19 | 0.02 | 82 | 1013.9 |
| 20260507053026 | 53 | 306 | 0.0 | 1.0 | 0.00 | 0.19 | 0.02 | 82 | 1013.9 |
| 20260507051526 | 53 | 321 | 0.0 | 0.0 | 0.00 | 0.19 | 0.02 | 82 | 1013.9 |
| 20260507050036 | 53 | 321 | 0.0 | 0.0 | 0.00 | 0.19 | 0.02 | 82 | 1013.7 |
| 20260507044523 | 53 | 319 | 0.0 | 0.0 | 0.00 | 0.19 | 0.02 | 82 | 1013.5 |
| 20260507043022 | 53 | 319 | 0.0 | 1.0 | 0.00 | 0.19 | 0.02 | 82 | 1013.4 |
| 20260507041525 | 53 | 269 | 1.0 | 3.0 | 0.00 | 0.19 | 0.02 | 82 | 1013.3 |
| 20260507040018 | 53 | 239 | 0.0 | 0.0 | 0.00 | 0.19 | 0.02 | 82 | 1013.1 |
| 20260507034518 | 53 | 239 | 0.0 | 0.0 | 0.00 | 0.19 | 0.02 | 82 | 1013.1 |
| 20260507033020 | 53 | 239 | 0.0 | 2.0 | 0.00 | 0.19 | 0.02 | 82 | 1013.0 |
| 20260507031515 | 53 | 238 | 0.0 | 0.0 | 0.00 | 0.19 | 0.02 | 82 | 1012.9 |
| 20260507030025 | 53 | 238 | 0.0 | 0.0 | 0.00 | 0.19 | 0.02 | 82 | 1012.9 |
| 20260507024522 | 53 | 238 | 0.0 | 0.0 | 0.01 | 0.19 | 0.02 | 82 | 1012.9 |
| 20260507023014 | 53 | 238 | 0.0 | 0.0 | 0.01 | 0.19 | 0.02 | 82 | 1013.0 |
| 20260507021513 | 53 | 238 | 0.0 | 0.0 | 0.01 | 0.19 | 0.02 | 82 | 1013.0 |
| 20260507020012 | 53 | 238 | 0.0 | 0.0 | 0.01 | 0.19 | 0.02 | 82 | 1013.0 |
| 20260507014513 | 53 | 238 | 0.0 | 0.0 | 0.00 | 0.19 | 0.01 | 82 | 1012.9 |
| 20260507013013 | 53 | 238 | 0.0 | 4.0 | 0.00 | 0.19 | 0.01 | 82 | 1012.7 |
| 20260507011509 | 53 | 225 | 0.0 | 0.0 | 0.00 | 0.19 | 0.01 | 82 | 1012.8 |
| 20260507010008 | 53 | 225 | 0.0 | 0.0 | 0.00 | 0.19 | 0.01 | 82 | 1012.7 |
| 20260507004506 | 54 | 223 | 0.0 | 3.0 | 0.01 | 0.19 | 0.01 | 82 | 1012.7 |
| 20260507003004 | 54 | 219 | 0.0 | 0.0 | 0.01 | 0.19 | 0.01 | 82 | 1012.7 |
| 20260507001503 | 54 | 219 | 0.0 | 0.0 | 0.01 | 0.19 | 0.01 | 82 | 1012.7 |
| 20260507000002 | 54 | 219 | 0.0 | 1.0 | 0.01 | 0.19 | 0.01 | 82 | 1012.7 |
| 20260506234501 | 55 | 219 | 0.0 | 1.0 | 0.00 | 0.18 | 0.00 | 82 | 1012.6 |
| 20260506233000 | 55 | 216 | 1.0 | 3.0 | 0.00 | 0.18 | 0.00 | 82 | 1012.6 |
| 20260506231611 | 55 | 211 | 0.0 | 3.0 | 0.00 | 0.18 | 0.00 | 82 | 1012.5 |
| 20260506230116 | 55 | 204 | 0.0 | 2.0 | 0.00 | 0.18 | 0.00 | 82 | 1012.6 |
| 20260506224557 | 55 | 202 | 0.0 | 3.0 | 0.00 | 0.18 | 0.00 | 81 | 1012.5 |
| 20260506223054 | 56 | 198 | 1.0 | 3.0 | 0.00 | 0.18 | 0.00 | 80 | 1012.5 |
| 20260506221610 | 56 | 186 | 2.0 | 3.0 | 0.02 | 0.18 | 0.00 | 80 | 1012.5 |
| 20260506220105 | 56 | 207 | 0.0 | 0.0 | 0.02 | 0.18 | 0.00 | 81 | 1012.3 |
| 20260506214550 | 56 | 207 | 2.0 | 4.0 | 0.02 | 0.18 | 0.18 | 80 | 1012.2 |
| 20260506213104 | 56 | 93 | 3.0 | 8.0 | 0.01 | 0.17 | 0.17 | 82 | 1012.0 |
| 20260506211548 | 56 | 65 | 1.0 | 4.0 | 0.00 | 0.17 | 0.17 | 82 | 1012.2 |
| 20260506210054 | 56 | 276 | 2.0 | 4.0 | 0.00 | 0.17 | 0.17 | 82 | 1012.1 |
| 20260506204547 | 56 | 92 | 2.0 | 4.0 | 0.00 | 0.17 | 0.17 | 82 | 1012.0 |
| 20260506203046 | 56 | 227 | 1.0 | 3.0 | 0.00 | 0.17 | 0.17 | 82 | 1012.0 |
| 20260506201548 | 56 | 118 | 2.0 | 5.0 | 0.00 | 0.17 | 0.17 | 82 | 1011.8 |
| 20260506200045 | 56 | 229 | 1.0 | 3.0 | 0.01 | 0.17 | 0.17 | 82 | 1011.5 |
| 20260506194545 | 57 | 227 | 3.0 | 5.0 | 0.01 | 0.17 | 0.17 | 81 | 1011.3 |
| 20260506193045 | 57 | 234 | 1.0 | 4.0 | 0.01 | 0.17 | 0.17 | 81 | 1010.9 |
| 20260506191548 | 58 | 160 | 2.0 | 5.0 | 0.01 | 0.17 | 0.17 | 80 | 1010.7 |
| 20260506190043 | 58 | 216 | 1.0 | 2.0 | 0.00 | 0.17 | 0.16 | 80 | 1010.5 |
| 20260506184553 | 58 | 216 | 0.0 | 0.0 | 0.00 | 0.17 | 0.16 | 79 | 1010.4 |
| 20260506183042 | 58 | 215 | 0.0 | 2.0 | 0.00 | 0.17 | 0.16 | 80 | 1010.2 |
| 20260506181543 | 59 | 222 | 0.0 | 2.0 | 0.00 | 0.17 | 0.16 | 79 | 1010.0 |
| 20260506180041 | 60 | 222 | 1.0 | 3.0 | 0.00 | 0.17 | 0.16 | 78 | 1010.0 |
| 20260506174540 | 60 | 222 | 0.0 | 1.0 | 0.00 | 0.17 | 0.16 | 78 | 1010.0 |
| 20260506173046 | 61 | 222 | 1.0 | 4.0 | 0.00 | 0.17 | 0.16 | 76 | 1009.7 |
| 20260506171553 | 61 | 226 | 2.0 | 3.0 | 0.00 | 0.17 | 0.16 | 75 | 1009.4 |
| 20260506170043 | 61 | 227 | 0.0 | 3.0 | 0.00 | 0.17 | 0.16 | 74 | 1009.3 |
| 20260506164538 | 61 | 227 | 0.0 | 2.0 | 0.00 | 0.17 | 0.16 | 75 | 1009.3 |
| 20260506163037 | 61 | 227 | 2.0 | 4.0 | 0.00 | 0.17 | 0.16 | 73 | 1009.3 |
| 20260506161539 | 61 | 219 | 2.0 | 4.0 | 0.00 | 0.17 | 0.16 | 73 | 1009.3 |
| 20260506160039 | 61 | 205 | 1.0 | 3.0 | 0.00 | 0.17 | 0.16 | 74 | 1009.3 |
| 20260506154533 | 61 | 222 | 0.0 | 4.0 | 0.00 | 0.17 | 0.16 | 74 | 1009.5 |
| 20260506153030 | 60 | 218 | 0.0 | 4.0 | 0.00 | 0.17 | 0.16 | 77 | 1009.5 |
| 20260506151533 | 60 | 225 | 3.0 | 5.0 | 0.00 | 0.17 | 0.16 | 78 | 1009.8 |
| 20260506150028 | 60 | 254 | 2.0 | 5.0 | 0.00 | 0.17 | 0.16 | 77 | 1009.8 |
| 20260506144525 | 60 | 244 | 4.0 | 8.0 | 0.00 | 0.17 | 0.16 | 77 | 1009.9 |
| 20260506143024 | 60 | 315 | 0.0 | 7.0 | 0.00 | 0.17 | 0.16 | 79 | 1010.0 |
| 20260506141522 | 59 | 342 | 1.0 | 3.0 | 0.00 | 0.17 | 0.16 | 80 | 1010.3 |
| 20260506140028 | 59 | 282 | 1.0 | 4.0 | 0.01 | 0.17 | 0.16 | 79 | 1010.5 |
| 20260506134521 | 58 | 148 | 6.0 | 12.0 | 0.02 | 0.17 | 0.16 | 79 | 1010.9 |
| 20260506133027 | 57 | 131 | 7.0 | 15.0 | 0.05 | 0.17 | 0.16 | 80 | 1010.9 |
| 20260506131520 | 57 | 133 | 9.0 | 19.0 | 0.09 | 0.17 | 0.16 | 81 | 1010.8 |
| 20260506130019 | 57 | 139 | 9.0 | 15.0 | 0.11 | 0.16 | 0.15 | 80 | 1010.7 |
| 20260506124521 | 58 | 207 | 7.0 | 19.0 | 0.09 | 0.15 | 0.13 | 79 | 1010.9 |
| 20260506123015 | 58 | 116 | 6.0 | 9.0 | 0.07 | 0.13 | 0.11 | 82 | 1010.5 |
| 20260506121515 | 59 | 227 | 3.0 | 4.0 | 0.02 | 0.08 | 0.06 | 80 | 1010.4 |
| 20260506120012 | 59 | 317 | 2.0 | 4.0 | 0.01 | 0.06 | 0.04 | 79 | 1010.0 |
| 20260506114529 | 59 | 360 | 2.0 | 5.0 | 0.01 | 0.06 | 0.04 | 80 | 1010.0 |
| 20260506113011 | 59 | 334 | 3.0 | 5.0 | 0.01 | 0.06 | 0.04 | 81 | 1010.0 |
| 20260506111507 | 59 | 332 | 2.0 | 4.0 | 0.02 | 0.06 | 0.04 | 80 | 1010.4 |
| 20260506110004 | 59 | 283 | 2.0 | 4.0 | 0.02 | 0.05 | 0.03 | 78 | 1010.8 |
| 20260506104502 | 59 | 109 | 1.0 | 3.0 | 0.02 | 0.06 | 0.03 | 79 | 1010.9 |